星链-6241 (STARLINK-6241 )

导读 | 豆包AI

STARLINK-6241是美国SpaceX星链互联网星座的卫星,于2023年5月4日发射入轨,属于星链低轨卫星组网的组成部分。星链项目旨在通过大规模低轨卫星群,为全球提供高速低延迟互联网覆盖,该卫星服役至今,已成为全球天基互联网基础设施中一颗普通节点,服务星链系统的全球通信覆盖能力。

基本信息
目录编号:
56409
目录名称:
STARLINK-6241
国际标识:
2023-061AM
轨道中心:
EARTH
卫星名称:
星链-6241
卫星全名:
星链-6241 (STARLINK-6241 )
卫星状态:
在轨 (已飞行1092 天)
发射日期:
2023-05-04 UTC
国别 :
美国 (US)
星等 :
--
轨道信息
数据来源 国际轨道数据
星历时间: 2026-04-30T02:08:30+0800
12小时前
查看轨道信息
半长轴: 6863.68km
偏心率: 0.0001081
轨道倾角: 43.002°
近地点辐角 268.840°
升交点赤经 258.709°
平近点角 91.232°
近地点: 484.801km
远地点: 486.285km
周期: 94.318分钟
每日圈数: 15.267476
详细信息
固有亮度:
5
最大亮度:
2.5
卫星平台:
Starlink v1.5
覆盖范围:
全球
运营商:
太空探索技术公司
运营商所在国:
美国
制造商(研发单位):
太空探索技术公司
制造商所在国:
美国
使用方式:
暂无
卫星简介
星链(Starlink)计划是由太空探索技术公司(SpaceX)提出的一个巨型低轨卫星互联网星座项目,计划在2019年至2024年间在太空搭建由约1.2万颗卫星组成的“星链”网络,其中1584颗将部署在地球上空550千米处的近地轨道,并从2020年开始工作。该卫星仍在工作。
2D轨道图
3D轨道图
轨道高度分析图
轨道倾角分析图
轨道综合分析图
查看轨道综合分析图